Yankton, SD

4:42 AM CST on December 08, 2019 (GMT -0600)
Gurney Municipal

Weather History for KYKN - October, 2019

Change the Weather History Date:

Tuesday, October 15, 2019

  Actual Average Record
Temperature  
Mean Temperature 46 °F -  
Max Temperature 51 °F 62 °F 89 °F (1958)
Min Temperature 42 °F 36 °F 25 °F (1952)
Degree Days  
Heating Degree Days 19    
Moisture  
Dew Point 36 °F    
Average Humidity 71    
Maximum Humidity 82    
Minimum Humidity 54    
Precipitation  
Precipitation 0.00 in - - ()
Sea Level Pressure  
Sea Level Pressure 30.11 in    
Wind  
Wind Speed 19 mph (WNW)    
Max Wind Speed 31 mph    
Max Gust Speed 38 mph    
Visibility 10 miles    
Events      
Averages and records for this station are not official NWS values.
T = Trace of Precipitation, MM = Missing Value Source: NWS Daily Summary

Daily Weather History Graph

Daily Weather History Graph

Search for Another Location

Airport or City:

Astronomy

Oct. 15, 2019 Rise Set
Actual Time 7:42 AM CDT 6:47 PM CDT
Civil Twilight 7:14 AM CDT 7:15 PM CDT
Nautical Twilight 6:41 AM CDT 7:48 PM CDT
Astronomical Twilight 6:08 AM CDT 8:21 PM CDT
Moon 8:05 PM CDT (10/15) 9:15 AM CDT (10/15)
Length of Visible Light 12h 01m
Length of Day
11h 04m
Full, 97% of the Moon is Illuminated
Oct 15
Full
Oct 21
Last Quarter
Oct 27
New
Nov 4
First Quarter
Nov 12
Full

Hourly Weather History & Observations

Time (CDT) Temp. Windchill Dew Point Humidity Pressure Visibility Wind Dir Wind Speed Gust Speed Precip Events Conditions
12:56 AM 46.9 °F - 39.9 °F 77% 29.84 in 10.0 mi West 11.5 mph - N/A   Clear
1:56 AM 46.0 °F 39.3 °F 39.0 °F 76% 29.87 in 10.0 mi West 16.1 mph - N/A   Clear
2:56 AM 44.1 °F 36.5 °F 37.0 °F 76% 29.89 in 10.0 mi WNW 17.3 mph 23.0 mph N/A   Clear
3:56 AM 44.1 °F 35.9 °F 37.0 °F 76% 29.93 in 10.0 mi WNW 19.6 mph 26.5 mph N/A   Clear
4:56 AM 44.1 °F 35.7 °F 37.0 °F 76% 29.96 in 10.0 mi WNW 20.7 mph - N/A   Clear
5:56 AM 43.0 °F 34.2 °F 37.0 °F 80% 29.99 in 10.0 mi WNW 20.7 mph 26.5 mph N/A   Clear
6:56 AM 44.1 °F 34.8 °F 37.9 °F 79% 30.03 in 10.0 mi WNW 25.3 mph 32.2 mph N/A   Clear
7:56 AM 42.1 °F 33.9 °F 36.0 °F 79% 30.06 in 10.0 mi WNW 17.3 mph 25.3 mph N/A   Clear
8:56 AM 42.1 °F 34.2 °F 35.1 °F 76% 30.10 in 10.0 mi WNW 16.1 mph 21.9 mph N/A   Clear
9:56 AM 46.0 °F 37.6 °F 35.1 °F 66% 30.10 in 10.0 mi WNW 24.2 mph 34.5 mph N/A   Clear
10:56 AM 48.9 °F - 35.1 °F 59% 30.11 in 10.0 mi WNW 25.3 mph 33.4 mph N/A   Partly Cloudy
11:56 AM 50.0 °F - 34.0 °F 54% 30.11 in 10.0 mi West 25.3 mph 32.2 mph N/A   Overcast
12:56 PM 48.0 °F - 32.0 °F 54% 30.13 in 10.0 mi WNW 31.1 mph 34.5 mph N/A   Overcast
1:56 PM 46.9 °F - 32.0 °F 56% 30.13 in 10.0 mi WNW 28.8 mph 38.0 mph N/A   Overcast
2:56 PM 46.0 °F 37.2 °F 32.0 °F 58% 30.14 in 10.0 mi WNW 26.5 mph 33.4 mph N/A   Overcast
3:56 PM 46.9 °F - 33.1 °F 59% 30.14 in 10.0 mi WNW 26.5 mph 32.2 mph N/A   Overcast
4:56 PM 46.0 °F 37.2 °F 34.0 °F 63% 30.16 in 10.0 mi NW 26.5 mph 31.1 mph N/A   Overcast
5:56 PM 45.0 °F 38.2 °F 35.1 °F 68% 30.19 in 10.0 mi NW 15.0 mph 25.3 mph N/A   Overcast
6:22 PM 44.6 °F 35.1 °F 35.6 °F 71% 30.14 in 10.0 mi NW 27.6 mph 33.4 mph N/A   Overcast
6:56 PM 44.1 °F 35.9 °F 36.0 °F 73% 30.22 in 10.0 mi NNW 19.6 mph 28.8 mph N/A   Overcast
7:56 PM 42.1 °F 34.5 °F 36.0 °F 79% 30.25 in 10.0 mi NW 15.0 mph 25.3 mph N/A   Overcast
8:56 PM 42.1 °F 34.9 °F 37.0 °F 82% 30.27 in 10.0 mi NNW 13.8 mph 24.2 mph N/A   Overcast
9:56 PM 42.1 °F 34.9 °F 37.0 °F 82% 30.28 in 10.0 mi NNW 13.8 mph - N/A   Overcast
10:40 PM 42.8 °F 37.0 °F 37.4 °F 81% 30.22 in 10.0 mi NW 10.4 mph - N/A   Overcast
10:56 PM 42.1 °F 35.7 °F 36.0 °F 79% 30.29 in 10.0 mi NW 11.5 mph - N/A   Overcast
11:56 PM 42.1 °F 36.1 °F 36.0 °F 79% 30.29 in 10.0 mi NW 10.4 mph - N/A   Overcast